User: anonymous   Login
Location: Tauranga
(37.6860°S, 176.1670°E)
Time: 20:16:46
(UTC+13:00)
Language:

HJ-1C - Orbit

View from above orbital plane
View from above orbital plane
View from above satellite
View from above satellite

Ground track
Ground track

The orbit data is extracted from the following two-line orbital elements,

1 38997U 12064A   19319.22197639  .00001923  00000-0  47714-4 0  9993
2 38997  97.1764 348.2291 0011721  72.3371 352.2346 15.41527542392629
Epoch (UTC): 15 November 2019 05:19:38
Eccentricity: 0.0011721
inclination: 97.1764°
perigee height: 433 km
apogee height: 449 km
right ascension of ascending node: 348.2291°
argument of perigee: 72.3371°
revolutions per day: 15.41527542
mean anomaly at epoch: 352.2346°
orbit number at epoch: 39262

The dashed part of the orbit path shows where the satellite is in the earth's shadow,  

DLR